Weather History for Rutherfordton, NC

Change the Weather History Date:

Sunday, March 9, 2014

  Actual Average (KAVL) Record (KAVL)
Temperature  
Mean Temperature 58 °F 45 °F  
Max Temperature 71 °F 57 °F 80 °F (1974)
Min Temperature 46 °F 34 °F 8 °F (1996)
Degree Days  
Heating Degree Days 6 20  
Month to date heating degree days 186  
Since 1 July heating degree days 3403  
Cooling Degree Days 0 0  
Month to date cooling degree days 0  
Year to date cooling degree days 0  
Growing Degree Days 8 (Base 50)    
Moisture  
Dew Point 31 °F    
Average Humidity 37    
Maximum Humidity 66    
Minimum Humidity 17    
Precipitation  
Precipitation 0.00 in 0.13 in 1.54 in (2011)
Month to date precipitation 1.12  
Year to date precipitation 8.55  
Snow  
Snow 0.00 in 0.10 in 11.00 in (1960)
Month to date snowfall 0.6  
Since 1 July snowfall 7.9  
Snow Depth -    
Sea Level Pressure  
Sea Level Pressure 30.05 in    
Wind  
Wind Speed 6 mph (NW)    
Max Wind Speed 16 mph    
Max Gust Speed 23 mph    
Visibility 10 miles    
Events      
T = Trace of Precipitation, MM = Missing Value Source: NWS Daily Summary

Daily Weather History Graph

Daily Weather History Graph

Search for Another Location

Airport:

Trip Planner

Search our weather history database for the weather conditions in past years. The results will help you decide how hot, cold, wet, or windy it might be!

Date:

Astronomy

Mar. 09, 2014 Rise Set
Actual Time 7:46 AM EDT 7:30 PM EDT
Civil Twilight 7:21 AM EDT 7:55 PM EDT
Nautical Twilight 6:51 AM EDT 8:25 PM EDT
Astronomical Twilight 6:22 AM EDT 8:54 PM EDT
Moon 1:30 PM EDT (3/9) 3:02 AM EDT (3/9)
Length of Visible Light 12h 34m
Length of Day
11h 43m
First Quarter, 61% of the Moon is Illuminated
Mar 9
First Quarter
Mar 16
Full
Mar 23
Last Quarter
Mar 30
New
Apr 7
First Quarter

Hourly Weather History & Observations

Time (EDT) Temp. Windchill Dew Point Humidity Pressure Visibility Wind Dir Wind Speed Gust Speed Precip Events Conditions
12:15 AM 56.1 °F - 31.1 °F 39% 30.03 in 10.0 mi SW 4.6 mph - N/A   Clear
12:35 AM 55.0 °F - 31.8 °F 41% 30.03 in 10.0 mi SW 4.6 mph - N/A   Clear
12:55 AM 53.2 °F - 32.0 °F 44% 30.03 in 10.0 mi SW 6.9 mph - N/A   Clear
1:15 AM 50.7 °F - 32.2 °F 49% 30.02 in 10.0 mi West 9.2 mph - N/A   Clear
1:35 AM 52.9 °F - 32.0 °F 45% 30.02 in 10.0 mi WNW 8.1 mph 17.3 mph N/A   Clear
1:55 AM 53.6 °F - 32.4 °F 44% 30.02 in 10.0 mi WNW 9.2 mph 18.4 mph N/A   Clear
3:15 AM 54.1 °F - 32.9 °F 45% 30.02 in 10.0 mi West 11.5 mph - N/A   Clear
3:35 AM 55.8 °F - 32.9 °F 42% 30.01 in 10.0 mi West 11.5 mph 18.4 mph N/A   Clear
3:55 AM 55.4 °F - 33.1 °F 43% 30.02 in 10.0 mi WNW 9.2 mph - N/A   Clear
4:15 AM 54.3 °F - 33.3 °F 45% 30.02 in 10.0 mi NW 9.2 mph 18.4 mph N/A   Clear
4:35 AM 54.0 °F - 33.3 °F 46% 30.02 in 10.0 mi NW 10.4 mph - N/A   Clear
4:55 AM 55.0 °F - 33.8 °F 45% 30.02 in 10.0 mi WNW 11.5 mph 18.4 mph N/A   Clear
5:15 AM 54.5 °F - 34.9 °F 48% 30.02 in 10.0 mi WNW 16.1 mph 20.7 mph N/A   Clear
5:35 AM 55.0 °F - 35.4 °F 48% 30.03 in 10.0 mi NW 4.6 mph 19.6 mph N/A   Clear
5:55 AM 54.0 °F - 35.6 °F 50% 30.04 in 10.0 mi Calm Calm - N/A   Clear
6:15 AM 53.8 °F - 36.1 °F 51% 30.05 in 10.0 mi West 6.9 mph - N/A   Clear
6:35 AM 53.8 °F - 36.5 °F 52% 30.05 in 10.0 mi WSW 4.6 mph - N/A   Clear
6:55 AM 53.6 °F - 36.7 °F 53% 30.05 in 10.0 mi SW 5.8 mph - N/A   Clear
7:15 AM 53.1 °F - 36.9 °F 54% 30.06 in 10.0 mi SW 4.6 mph - N/A   Clear
7:35 AM 51.8 °F - 37.0 °F 57% 30.06 in 10.0 mi West 4.6 mph - N/A   Clear
7:55 AM 52.7 °F - 37.4 °F 56% 30.07 in 10.0 mi WSW 3.5 mph - N/A   Clear
8:15 AM 52.7 °F - 37.4 °F 56% 30.08 in 10.0 mi WNW 3.5 mph - N/A   Clear
8:35 AM 52.5 °F - 37.4 °F 56% 30.08 in 10.0 mi West 3.5 mph - N/A   Clear
8:55 AM 46.4 °F 45.2 °F 35.4 °F 66% 30.09 in 10.0 mi ESE 3.5 mph - N/A   Clear
9:15 AM 48.2 °F - 36.0 °F 63% 30.10 in 10.0 mi East 3.5 mph - N/A   Clear
9:35 AM 53.6 °F - 38.7 °F 57% 30.11 in 10.0 mi Calm Calm - N/A   Clear
9:55 AM 55.8 °F - 37.2 °F 50% 30.11 in 10.0 mi Calm Calm - N/A   Clear
10:15 AM 56.5 °F - 38.7 °F 51% 30.10 in 10.0 mi East 4.6 mph - N/A   Clear
10:35 AM 57.4 °F - 38.3 °F 49% 30.10 in 10.0 mi Calm Calm - N/A   Clear
10:55 AM 59.0 °F - 37.9 °F 46% 30.10 in 10.0 mi Calm Calm - N/A   Clear
11:15 AM 60.4 °F - 38.5 °F 44% 30.10 in 10.0 mi East 4.6 mph - N/A   Clear
11:35 AM 61.2 °F - 38.5 °F 43% 30.10 in 10.0 mi SSE 3.5 mph - N/A   Clear
11:55 AM 61.2 °F - 38.1 °F 42% 30.10 in 10.0 mi Calm Calm - N/A   Clear
12:10 PM 62.1 °F - 38.3 °F 41% 30.09 in 10.0 mi ESE 3.5 mph - N/A   Clear
12:35 PM 64.4 °F - 37.6 °F 37% 30.09 in 10.0 mi NNW 6.9 mph - N/A   Clear
12:55 PM 64.4 °F - 38.3 °F 38% 30.09 in 10.0 mi Calm Calm - N/A   Clear
1:15 PM 65.3 °F - 36.7 °F 35% 30.08 in 10.0 mi WNW 4.6 mph - N/A   Clear
1:35 PM 64.8 °F - 37.8 °F 37% 30.08 in 10.0 mi East 5.8 mph - N/A   Clear
1:55 PM 65.8 °F - 37.4 °F 35% 30.07 in 10.0 mi NE 4.6 mph - N/A   Clear
2:15 PM 66.4 °F - 35.1 °F 31% 30.06 in 10.0 mi South 6.9 mph - N/A   Clear
2:35 PM 66.2 °F - 34.3 °F 31% 30.06 in 10.0 mi NNE 3.5 mph - N/A   Clear
2:55 PM 68.5 °F - 35.8 °F 30% 30.04 in 10.0 mi ESE 4.6 mph - N/A   Clear
3:15 PM 68.4 °F - 35.6 °F 30% 30.03 in 10.0 mi East 6.9 mph - N/A   Clear
3:35 PM 68.7 °F - 34.5 °F 28% 30.02 in 10.0 mi ENE 5.8 mph - N/A   Clear
3:55 PM 70.2 °F - 31.6 °F 24% 30.01 in 10.0 mi ENE 9.2 mph - N/A   Clear
4:15 PM 70.3 °F - 31.6 °F 24% 30.02 in 10.0 mi NNW 8.1 mph 16.1 mph N/A   Clear
4:35 PM 70.7 °F - 27.7 °F 20% 30.02 in 10.0 mi WNW 15.0 mph 23.0 mph N/A   Clear
4:50 PM 71.1 °F - 27.1 °F 19% 30.02 in 10.0 mi NW 11.5 mph 20.7 mph N/A   Clear
5:15 PM 70.9 °F - 24.1 °F 17% 30.02 in 10.0 mi NW 11.5 mph - N/A   Clear
5:35 PM 70.3 °F - 24.6 °F 18% 30.02 in 10.0 mi WNW 11.5 mph 20.7 mph N/A   Clear
5:55 PM 69.8 °F - 26.1 °F 19% 30.02 in 10.0 mi NW 12.7 mph - N/A   Clear
6:15 PM 69.1 °F - 24.6 °F 19% 30.02 in 10.0 mi WNW 9.2 mph - N/A   Clear
6:35 PM 68.0 °F - 23.4 °F 19% 30.02 in 10.0 mi WNW 9.2 mph 17.3 mph N/A   Clear
6:55 PM 66.4 °F - 23.0 °F 19% 30.03 in 10.0 mi NNW 6.9 mph - N/A   Clear
7:15 PM 65.1 °F - 23.0 °F 20% 30.02 in 10.0 mi NW 6.9 mph - N/A   Clear
7:35 PM 63.7 °F - 22.1 °F 20% 30.03 in 10.0 mi WNW 8.1 mph - N/A   Clear
7:55 PM 62.1 °F - 22.3 °F 22% 30.03 in 10.0 mi NW 5.8 mph - N/A   Clear
8:15 PM 60.4 °F - 23.0 °F 24% 30.03 in 10.0 mi NW 8.1 mph - N/A   Clear
8:35 PM 58.6 °F - 23.7 °F 26% 30.04 in 10.0 mi NW 4.6 mph - N/A   Clear
8:55 PM 56.1 °F - 25.9 °F 31% 30.04 in 10.0 mi Calm Calm - N/A   Clear
9:15 PM 56.8 °F - 23.4 °F 27% 30.05 in 10.0 mi ENE 3.5 mph - N/A   Clear
9:35 PM 58.6 °F - 21.0 °F 23% 30.05 in 10.0 mi NW 5.8 mph - N/A   Clear
9:55 PM 58.3 °F - 20.8 °F 23% 30.05 in 10.0 mi NW 4.6 mph - N/A   Clear
10:15 PM 57.4 °F - 20.1 °F 24% 30.05 in 10.0 mi North 3.5 mph - N/A   Scattered Clouds
10:35 PM 55.2 °F - 19.2 °F 25% 30.05 in 10.0 mi NNW 4.6 mph - N/A   Scattered Clouds
10:55 PM 53.8 °F - 19.9 °F 27% 30.05 in 10.0 mi North 3.5 mph - N/A   Clear
11:15 PM 52.5 °F - 20.1 °F 28% 30.06 in 10.0 mi NW 3.5 mph - N/A   Clear
11:35 PM 53.8 °F - 19.9 °F 27% 30.05 in 10.0 mi North 4.6 mph - N/A   Clear
11:55 PM 51.6 °F - 19.8 °F 29% 30.05 in 10.0 mi Calm Calm - N/A   Clear
12:15 AM 50.9 °F - 18.9 °F 28% 30.06 in 10.0 mi NNE 3.5 mph - N/A   Clear
12:35 AM 50.4 °F - 18.5 °F 28% 30.06 in 10.0 mi NNE 5.8 mph - N/A   Clear
12:55 AM 52.3 °F - 18.3 °F 26% 30.05 in 10.0 mi North 5.8 mph - N/A   Clear